O3B FM13 (43234 NORAD) Tracking and Keplerian Element Data

This shows tracking and keplerian element data for the satellite.

Feedback or suggestion? Click here.




ElementValue
Catalog43234
NameO3B FM13
Epoch Orbit2041
Epoch Day111.83665185
Epoch Year2019
RAAN10.8436
Inclination0.0275
Eccentricity0.0005323
Argument of Perigee20.0002
Mean Anonmoly329.1865
Mean Motion5.00112957
Decay Rate-3E-07
L11 43234U 18024D 19111.83665185 -.00000030 00000-0 00000-0 0 9990
L22 43234 0.0275 10.8436 0005323 20.0002 329.1865 5.00112957 20412

Live tracking and technical data element details for O3B FM13 (NORAD 43234). O3B FM13 can be tracked NOW for your location showing map with azimuth and elevation plus other details from your city location.

Track the satellite on the map from your city or location and see movement details for azimuth, elevation, latitude, longitude, range, height, and movement on the map or in text.







IsCatalogInMostPopularTable: catalog: 43234, numindb: 151
Update: records affected: 1



GetName: 43234 O3B FM13

Hit Count: updated at: Tue, 23 Apr 2019 06:29:55 GMT